Kolkata, India

11:19 PM IST on November 24, 2017 (GMT +0530)
Netaji Subhash Chandra Bose International

Weather History for VECC - October, 2012

Change the Weather History Date:

Saturday, October 20, 2012

  Actual Average Record
Temperature  
Mean Temperature 82 °F -  
Max Temperature 91 °F 86 °F 93 °F (2010)
Min Temperature 72 °F 74 °F 70 °F (2014)
Cooling Degree Days 16    
Growing Degree Days 32 (Base 50)    
Moisture  
Dew Point 67 °F    
Average Humidity 63    
Maximum Humidity 88    
Minimum Humidity 31    
Precipitation  
Precipitation 0.00 in - - ()
Sea Level Pressure  
Sea Level Pressure 29.91 in    
Wind  
Wind Speed 3 mph ()    
Max Wind Speed 9 mph    
Max Gust Speed -    
Visibility 1.7 miles    
Events      
Averages and records for this station are not official NWS values.
T = Trace of Precipitation, MM = Missing Value Source: Averaged Metar Reports

Daily Weather History Graph

Daily Weather History Graph

Search for Another Location

Airport or City:

Trip Planner

Search our weather history database for the weather conditions in past years. The results will help you decide how hot, cold, wet, or windy it might be!

Date:

Astronomy

Oct. 20, 2012 Rise Set
Actual Time 5:34 AM IST 5:06 PM IST
Civil Twilight 5:12 AM IST 5:29 PM IST
Nautical Twilight 4:45 AM IST 5:55 PM IST
Astronomical Twilight 4:19 AM IST 6:21 PM IST
Moon 10:24 AM IST (10/20) 9:38 PM IST (10/20)
Length of Visible Light 12h 17m
Length of Day
11h 31m
Waxing Crescent, 29% of the Moon is Illuminated
Oct 20
Waxing Crescent
Oct 22
First Quarter
Oct 30
Full
Nov 7
Last Quarter
Nov 14
New

Hourly Weather History & Observations

Time (IST) Temp. Heat Index Dew Point Humidity Pressure Visibility Wind Dir Wind Speed Gust Speed Precip Events Conditions
12:20 AM 77.0 °F - 69.8 °F 78% 29.86 in 1.2 mi Calm Calm - N/A   Haze
12:50 AM 77.0 °F - 69.8 °F 78% 29.86 in 1.2 mi Calm Calm - N/A   Haze
1:20 AM 77.0 °F - 69.8 °F 78% 29.86 in 1.2 mi Calm Calm - N/A   Haze
2:20 AM 75.2 °F - 69.8 °F 83% 29.89 in 1.2 mi North 4.6 mph - N/A   Haze
2:30 AM 75 °F - 70 °F 80% 29.91 in 1 mi Calm Calm - -   Haze
2:50 AM 75.2 °F - 69.8 °F 83% 29.89 in 1.2 mi North 3.5 mph - N/A   Haze
3:20 AM 75.2 °F - 69.8 °F 83% 29.89 in 1.2 mi North 3.5 mph - N/A   Haze
4:20 AM 75.2 °F - 69.8 °F 83% 29.89 in 1.2 mi North 3.5 mph - N/A   Haze
4:50 AM 75.2 °F - 69.8 °F 83% 29.89 in 1.2 mi North 3.5 mph - N/A   Haze
5:20 AM 73.4 °F - 69.8 °F 88% 29.92 in 1.1 mi North 3.5 mph - N/A   Haze
5:30 AM 74 °F - 70 °F 83% 29.92 in 1 mi Calm Calm - -   Haze
5:50 AM 73.4 °F - 69.8 °F 88% 29.92 in 1.1 mi NNE 3.5 mph - N/A   Haze
6:20 AM 75.2 °F - 69.8 °F 83% 29.92 in 1.1 mi North 3.5 mph - N/A   Haze
7:20 AM 77.0 °F - 69.8 °F 78% 29.95 in 1.4 mi North 3.5 mph - N/A   Haze
7:50 AM 78.8 °F - 69.8 °F 74% 29.98 in 1.6 mi North 4.6 mph - N/A   Haze
8:20 AM 80.6 °F 83.9 °F 69.8 °F 70% 29.98 in 1.7 mi NNE 4.6 mph - N/A   Haze
8:30 AM 84 °F - 69 °F 52% 30.00 in 1 mi Calm Calm - -   Haze
9:20 AM 84.2 °F 88.4 °F 69.8 °F 62% 30.01 in - NE 6.9 mph - N/A   Haze
9:50 AM 86.0 °F 89.4 °F 68.0 °F 55% 29.98 in - NNE 8.1 mph - N/A   Haze
10:20 AM 86.0 °F 89.4 °F 68.0 °F 55% 29.98 in 2.2 mi NNE 5.8 mph - N/A   Haze
10:50 AM 87.8 °F 90.4 °F 66.2 °F 49% 29.95 in - NNE 6.9 mph - N/A   Haze
11:20 AM 87.8 °F 89.4 °F 64.4 °F 46% 29.92 in - North 5.8 mph - N/A   Haze
11:30 AM 89 °F - 62 °F 31% 29.95 in 1 mi NW 2.3 mph - -   Haze
11:50 AM 87.8 °F 89.4 °F 64.4 °F 46% 29.89 in 2.5 mi North 8.1 mph - N/A   Haze
12:20 PM 87.8 °F 89.4 °F 64.4 °F 46% 29.89 in - NE 9.2 mph - N/A   Haze
12:50 PM 89.6 °F 90.1 °F 62.6 °F 40% 29.89 in 2.8 mi NE 6.9 mph - N/A   Haze
1:20 PM 89.6 °F 90.1 °F 62.6 °F 40% 29.86 in 2.8 mi NNE 6.9 mph - N/A   Haze
1:50 PM 89.6 °F 90.1 °F 62.6 °F 40% 29.86 in 2.8 mi NNE 6.9 mph - N/A   Haze
2:20 PM 89.6 °F 90.1 °F 62.6 °F 40% 29.86 in 2.8 mi NNE 9.2 mph - N/A   Haze
3:20 PM 89.6 °F 90.1 °F 62.6 °F 40% 29.89 in 2.8 mi NE 5.8 mph - N/A   Haze
3:50 PM 87.8 °F 88.5 °F 62.6 °F 43% 29.86 in 2.8 mi NE 5.8 mph - N/A   Haze
4:20 PM 87.8 °F 88.5 °F 62.6 °F 43% 29.86 in 2.8 mi NNE 4.6 mph - N/A   Haze
4:50 PM 86.0 °F 87.3 °F 64.4 °F 48% 29.86 in 2.5 mi NNE 3.5 mph - N/A   Haze
5:20 PM 86.0 °F 87.3 °F 64.4 °F 48% 29.86 in 2.2 mi NNW 3.5 mph - N/A   Haze
5:30 PM 85 °F - 65 °F 42% 29.88 in 1 mi Calm Calm - -   Haze
5:50 PM 84.2 °F 86.6 °F 66.2 °F 55% 29.89 in 2.2 mi NNW 3.5 mph - N/A   Haze
6:20 PM 82.4 °F 84.6 °F 66.2 °F 58% 29.89 in - NNW 3.5 mph - N/A   Haze
6:50 PM 82.4 °F 84.6 °F 66.2 °F 58% 29.89 in - Calm Calm - N/A   Haze
7:20 PM 82.4 °F 84.6 °F 66.2 °F 58% 29.92 in - Calm Calm - N/A   Haze
7:50 PM 80.6 °F 83.2 °F 68.0 °F 65% 29.92 in 1.9 mi Calm Calm - N/A   Haze
8:20 PM 80.6 °F 83.2 °F 68.0 °F 65% 29.92 in 1.9 mi Calm Calm - N/A   Haze
8:30 PM 79 °F - 69 °F 65% 29.94 in 1 mi Calm Calm - -   Haze
8:50 PM 80.6 °F 83.2 °F 68.0 °F 65% 29.92 in 1.9 mi Calm Calm - N/A   Haze
9:20 PM 80.6 °F 83.2 °F 68.0 °F 65% 29.92 in 1.9 mi Calm Calm - N/A   Haze
9:50 PM 78.8 °F - 68.0 °F 69% 29.92 in 1.7 mi NNW 3.5 mph - N/A   Haze
10:20 PM 78.8 °F - 68.0 °F 69% 29.92 in 1.7 mi Calm Calm - N/A   Haze
10:50 PM 78.8 °F - 69.8 °F 74% 29.92 in 1.6 mi Calm Calm - N/A   Haze
11:20 PM 78.8 °F - 69.8 °F 74% 29.92 in 1.6 mi Calm Calm - N/A   Haze
11:30 PM 77 °F - 70 °F 73% 29.94 in 1 mi Calm Calm - -   Haze
11:50 PM 77.0 °F - 69.8 °F 78% 29.92 in 1.6 mi Calm Calm - N/A   Haze